Flag for Germany Weather past 2 weeks in Verden (Aller), Lower Saxony, Germany

Now
55 °F

Fog.


Feels Like: 55 °F
Forecast: 53 / 67 °F
Wind: No wind

Location: Bremen Airport

Current Time: Oct 1, 2014 at 12:23:43 AM

Latest Report: Sep 30, 2014 at 11:50 PM


Visibility: 5 mi

Pressure: 30.27 "Hg

Humidity: 94%

Dew point: 54 °F

Location of Verden (Aller)Location

Historic Weather in Verden (Aller) — Graph

°F

Verden (Aller) temperature yesterday

Maximum temperature yesterday: 68 °F (at 1:50 PM)
Minimum temperature yesterday: 55 °F (at 11:20 PM)
Average temperature yesterday: 63 °F

Past Weeks' High & Low Weather Summary

 TemperatureHumidityPressure
High77 °F (Sep 16, 3:50 PM)100% (Sep 16, 1:20 AM)30.36 "Hg (Sep 16, 1:20 AM)
Low43 °F (Sep 23, 3:20 AM)43% (Sep 27, 3:20 PM)29.77 "Hg (Sep 24, 3:50 PM)
Average60 °F80%30.04 "Hg
* Reported Sep 15 11:20 PM — Sep 30 11:20 PM, Verden (Aller), Weather by CustomWeather, © 2014

Note: Actual official high and low records may vary slightly from our data, if they occured in-between our weather recording intervals... More about our weather records

Advertising

Verden (Aller) weather history for previous 24 hours

 ConditionsComfort  
Time TempWeatherWind HumidityBarometerVisibility
11:20 PM
Sep 30
55 °FPassing clouds.5 mph94%30.27 "HgN/A
10:50 PM59 °FPassing clouds.6 mph88%30.27 "HgN/A
10:20 PM61 °FPassing clouds.5 mph83%30.27 "HgN/A
9:50 PM61 °FPartly cloudy.7 mph88%30.27 "HgN/A
9:20 PM61 °FPartly cloudy.3 mph88%30.27 "HgN/A
8:50 PM59 °FClear.5 mph94%30.24 "Hg10 mi
8:20 PM59 °FClear.5 mph88%30.24 "Hg5 mi
7:50 PM61 °FClear.5 mph83%30.24 "Hg5 mi
7:20 PM63 °FClear.3 mph77%30.24 "Hg5 mi
6:50 PM64 °FPartly sunny.3 mph78%30.24 "HgN/A
6:20 PM66 °FPartly sunny.6 mph73%30.24 "HgN/A
5:50 PM66 °FBroken clouds.8 mph73%30.21 "HgN/A
5:20 PM66 °FPartly sunny.9 mph73%30.21 "HgN/A
4:50 PM68 °FPartly sunny.10 mph64%30.21 "HgN/A
4:20 PM68 °FScattered clouds.12 mph64%30.21 "HgN/A
3:50 PM68 °FBroken clouds.10 mph69%30.21 "HgN/A
3:20 PM68 °FPartly sunny.8 mph69%30.21 "HgN/A
2:50 PM66 °FPartly sunny.8 mph78%30.21 "HgN/A
2:20 PM66 °FPartly sunny.8 mph73%30.21 "HgN/A
1:50 PM68 °FPassing clouds.9 mph69%30.21 "Hg6 mi
1:20 PM66 °FPartly sunny.9 mph73%30.21 "HgN/A
12:50 PM64 °FPartly sunny.8 mph83%30.21 "HgN/A
12:20 PM63 °FPartly sunny.9 mph88%30.21 "HgN/A
11:50 AM64 °FPartly sunny.12 mph83%30.21 "Hg6 mi
11:20 AM64 °FPartly sunny.10 mph83%30.21 "Hg6 mi
10:50 AM64 °FBroken clouds.9 mph83%30.21 "Hg5 mi
10:20 AM63 °FFog.8 mph88%30.21 "Hg3 mi
9:50 AM63 °FFog.9 mph94%30.21 "Hg2 mi
9:20 AM61 °FFog.7 mph100%30.21 "Hg2 mi
8:50 AM61 °FFog.5 mph100%30.18 "Hg2 mi
8:20 AM61 °FFog.5 mph94%30.18 "Hg1 mi
7:50 AM61 °FFog.5 mph94%30.18 "Hg1 mi
7:20 AM61 °FFog.3 mph94%30.18 "Hg1 mi
6:50 AM61 °FLight rain. Fog.6 mph94%30.18 "Hg2 mi
6:20 AM61 °FFog.3 mph94%30.18 "Hg2 mi
5:50 AM61 °FFog.6 mph94%30.18 "Hg2 mi
5:20 AM61 °FPassing clouds.6 mph94%30.18 "Hg4 mi
4:50 AM61 °FPassing clouds.6 mph94%30.18 "HgN/A
4:20 AM61 °FPassing clouds.7 mph94%30.18 "HgN/A
3:50 AM61 °FPassing clouds.5 mph88%30.18 "HgN/A
3:20 AM61 °FPartly cloudy.3 mph88%30.18 "HgN/A
2:50 AM61 °FPartly cloudy.5 mph94%30.18 "HgN/A
2:20 AM61 °FLight rain. Partly cloudy.7 mph94%30.18 "Hg4 mi
1:50 AM61 °FFog.3 mph94%30.18 "Hg3 mi
1:20 AM61 °FFog.2 mph94%30.18 "Hg3 mi
12:50 AM61 °FRain. Fog.2 mph94%30.18 "Hg3 mi
12:20 AM63 °FRain. Fog.3 mph94%30.18 "Hg3 mi
Weather by CustomWeather, © 2014

See weather overviewHow to use our weather pages